カタログに戻る

COSMOS 2251 DEB

運用中LEO
NORAD 37094·DEBRIS·🇷🇺 Russia

打ち上げ Jun 16, 1993 から Plesetsk Cosmodrome

Loading…

次のパス (今後24時間)

TLE

最新Source: Space-Track

元期: Sep 13, 2026, 13:36 UTC

1 37094U 93036BFQ 26256.56728591  .00001227  00000-0  38923-3 0  9998
2 37094  74.1099 336.6888 0082571 231.7370 127.6336 14.39144192884582

AllMySatでCOSMOS 2251 DEBをリアルタイム追跡

Download on the App Store